STARLINK-5882, 55936

Orbit data source: Space-Track

STARLINK-5882, 55936 is a payload satellite owned by SpaceX/Seattle (US) in LEO that was launched on Fri, 17 Mar 2023 UTC via an FALCON 9 launch vehicle from the Air Force Western Test Range (AFWTR). Payload-class satellites include a variety of spacecraft equipped with specific instruments for various scientific and technological missions. These include communications satellites like Starlink; space stations such as the ISS; scientific satellites like the Hubble; Earth observation satellites from companies like Planet Labs, Umbra, and HawkEye 360; GPS; miniature CubeSats for education and research; and military/defense satellites.

Loading next visibility...
Identifier
55936, 2023-037Y
Orbit
LEO
Country
Flag of USUS
Related business
Manufacturer
SpaceX/Seattle
Mission
Operational Commercial Communications
Bus & Motor
STARLINK, Unknown motor
Mass
305 kg wet, ~290 kg dry
Launch date (UTC)
2023-03-17 (3 years ago)
Launch vehicle
FALCON 9
Launch site
Air Force Western Test Range (AFWTR)
Object type
Payload
Rocket body
Debris
Shape & HBR
Box + 1 Pan, 10.1 m
Radar Cross Section
11.087 m², Large (>1 m²)

Expand to show TLE details & history
Last TLE update: 19 hours ago

TLE from 19 hours ago
0 STARLINK-5882
1 55936U 23037Y   25349.74833101  .00000417  00000-0  42759-4 0  9996
2 55936  69.9994 115.9379 0003219 268.3202  91.7588 14.98333465151909
Epoch: 2025-12-15T17:57Z
TLE epoch observation values (Epoch: 2025-12-15T17:57:35.799Z)
Latitude
-0.00004°
Longitude
121.89628°
Altitude
574.538 km
Speed
7.574 km/s
True Right ascension
07h 43m 45s
True Declination
0° 00' 00"
Sunlit
Object was in full shadow at epoch
Visualization orbit readout
Latitude
Unknown
Longitude
Unknown
Altitude
Unknown
Speed
Unknown
Apparent Right ascension
Unknown
Apparent Declination
Unknown
Sunlit
N/A
Visualization observer readout
Local Sidereal Time
11:10:54
Azimuth
Unknown
Elevation
Unknown
Doppler factor
Unknown
Orbital elements
Apogee altitude
572.23 km
Perigee altitude
567.757 km
Semi-major axis
6,948.13 km
Eccentricity
0.00032
Inclination
69.9994°
RAAN
115.9379°
Arg. of periapsis
268.3202°
True anomaly
91.79567°
Mean anomaly
91.7588°
Eccentric anomaly
91.77723°
Mean motion
3.7475 °/min
Orbital period
96.06 mins
BSTAR
0.000042759
Loading maneuver chart data...
Computing Atmospheric mass density...
Loading historical data...
Loading historical data...
Loading historical data...
Loading historical data...
Loading historical data...
Loading historical data...
Loading historical data...

Documentation

Showing up to 5 results
|